PRAETORIAN SDA_604

Last updated on Sat Jun 27 2026 00:03:47 GMT+0000 (Coordinated Universal Time)

1 65567U 25203C 26177.76432744 .00000084 00000+0 65853-4 0 9993 2 65567 81.3052 2.2462 0005802 165.5081 194.6242 13.83048465 40001
UTC large
Height (km)
Speed (km/s)
/
Latitude / Longitude
Inclination (degrees)
Orbital Period (minutes)
Azimuth
Elevation
Range (km)
Doppler Factor

Next 0 passes for location: London (51.5072 / 0.1276)

No passes found over London.
PRAETORIAN SDA_604